Flag for Malta

Past Weather in Valletta, Malta — Yesterday and Last 2 Weeks

Now
75 °F

Clear.


Feels Like: 76 °F
Forecast: 85 / 70 °F
Wind: 6 mph from Northeast

Location: Luqa

Current Time: Jul 10, 2020 at 10:21:02 pm

Latest Report: Jul 10, 2020 at 9:45 pm


Visibility: 10 mi

Pressure: 29.98 "Hg

Humidity: 78%

Dew Point: 68 °F

Location of VallettaLocation

Past Weather in Valletta — Graph

°F

Valletta Temperature Yesterday

Maximum temperature yesterday: 82 °F (at 9:45 am)
Minimum temperature yesterday: 70 °F (at 4:45 am)
Average temperature yesterday: 77 °F

High & Low Weather Summary for the Past Weeks

 TemperatureHumidityPressure
High95 °F (Jul 2, 1:45 pm)100% (Jun 27, 6:15 am)30.09 "Hg (Jun 27, 6:15 am)
Low70 °F (Jun 26, 5:15 am)20% (Jul 2, 1:15 pm)29.77 "Hg (Jul 6, 3:45 pm)
Average78 °F71%29.94 "Hg
* Reported Jun 25 9:15 pm — Jul 10 9:15 pm, Valletta. Weather by CustomWeather, © 2020

Note: Actual official high and low records may vary slightly from our data, if they occured in-between our weather recording intervals... More about our weather records

Valletta Weather History for the Previous 24 Hours

Scroll right to see more
 ConditionsComfort  
Time TempWeatherWind HumidityBarometerVisibility
9:15 pm
Fri, Jul 10
75 °FPassing clouds.7 mph78%29.98 "HgN/A
8:45 pm77 °FPassing clouds.3 mph74%29.98 "HgN/A
8:15 pm77 °FPassing clouds.5 mph74%29.98 "HgN/A
7:45 pm79 °FPassing clouds.6 mph70%29.98 "HgN/A
7:15 pm81 °FPassing clouds.8 mph66%29.98 "HgN/A
6:45 pm81 °FPassing clouds.8 mph66%29.98 "HgN/A
6:15 pm84 °FPassing clouds.3 mph58%29.98 "HgN/A
5:45 pm84 °FPassing clouds.2 mph58%29.98 "HgN/A
5:15 pm84 °FPassing clouds.6 mph58%29.98 "HgN/A
4:45 pm84 °FPassing clouds.8 mph58%29.98 "HgN/A
4:15 pm82 °FPassing clouds.7 mph62%29.98 "HgN/A
3:15 pm86 °FPassing clouds.5 mph52%29.98 "HgN/A
2:45 pm84 °FPassing clouds.8 mph55%29.98 "HgN/A
2:15 pm82 °FPassing clouds.8 mph62%30.01 "HgN/A
1:45 pm84 °FPassing clouds.8 mph58%30.01 "HgN/A
1:15 pm82 °FPassing clouds.8 mph62%30.01 "HgN/A
12:45 pm82 °FPassing clouds.8 mph62%30.01 "HgN/A
12:15 pm82 °FPassing clouds.6 mph62%30.01 "HgN/A
11:45 am82 °FPassing clouds.5 mph58%30.01 "HgN/A
11:15 am82 °FPassing clouds.6 mph62%30.01 "HgN/A
10:45 am81 °FPassing clouds.7 mph66%30.01 "HgN/A
10:15 am81 °FSunny.5 mph66%30.01 "Hg10 mi
9:45 am81 °FPassing clouds.7 mph66%30.01 "HgN/A
9:15 am79 °FPassing clouds.5 mph65%30.01 "HgN/A
8:45 am79 °FPassing clouds.5 mph65%30.01 "HgN/A
8:15 am77 °FPassing clouds.5 mph74%30.01 "HgN/A
7:45 am75 °FPassing clouds.5 mph78%30.01 "HgN/A
7:15 am73 °FPassing clouds.3 mph83%30.01 "HgN/A
6:45 am70 °FPassing clouds.5 mph94%30.01 "HgN/A
6:15 am70 °FPassing clouds.3 mph88%29.98 "Hg10 mi
5:45 am70 °FPassing clouds.5 mph88%29.98 "HgN/A
5:15 am70 °FPassing clouds.5 mph94%30.01 "HgN/A
4:45 am70 °FPassing clouds.3 mph94%30.01 "HgN/A
4:15 am70 °FPassing clouds.5 mph94%30.01 "HgN/A
3:45 am70 °FPassing clouds.5 mph94%30.01 "HgN/A
3:15 am72 °FClear.5 mph88%30.01 "Hg10 mi
2:45 am72 °FClear.3 mph88%30.01 "Hg10 mi
2:15 am72 °FClear.3 mph88%30.01 "Hg10 mi
1:45 am72 °FPassing clouds.5 mph88%30.01 "HgN/A
1:15 am72 °FPassing clouds.5 mph88%30.01 "HgN/A
12:45 am72 °FPassing clouds.5 mph88%30.01 "HgN/A
12:15 am72 °FClear.3 mph88%30.04 "Hg10 mi
11:45 pm
Thu, Jul 9
73 °FClear.3 mph83%30.01 "Hg10 mi
11:15 pm73 °FClear.2 mph83%30.01 "Hg10 mi
10:45 pm73 °FClear.2 mph83%30.01 "Hg10 mi
10:15 pm73 °FClear.5 mph83%30.01 "Hg10 mi
Weather by CustomWeather, © 2020

See weather overview